Location: Asheville, NC
(35.6000°N, 82.5500°W)
Time: 04:46:59
(UTC-04:00)

Vanguard 2 Rocket - Pass Details

Date: 09 February 2018
Orbit: 553 x 3327 km, 32.9° (Epoch: 24 May)

Event Time Altitude Azimuth Distance (km) Brightness Sun altitude
Exits shadow 04:26:01 56° 253° (WSW) 3,700 9.4 -36.4°
Maximum altitude 04:32:20 82° 177° (S) 3,168 9.3 -35.1°
Drops below altitude 10° 04:48:27 10° 93° (E) 4,995 11.5 -31.9°
Sets 04:51:38 0° 92° (E) 5,702 12.1 -31.2°
